Miscellaneous Local Product
Issued by NWS Hastings, NE

Home | Current Version | Previous Version | Graphics & Text | Print | Product List | Glossary On
Versions: 1 2 3 4 5 6 7 8 9 10 11 12 13 14 15 16 17 18 19 20 21 22 23 24 25 26 27 28 29 30 31 32 33 34 35 36 37 38 39 40 41 42 43 44 45 46 47 48 49 50
000
AXUS43 KGID 011902
MISGRI

GID CWA HOURLY WEATHER ROUNDUP
NATIONAL WEATHER SERVICE HASTINGS NE
200 PM CDT WED JUL 01 2015

NOTE: "FAIR" INDICATES FEW OR NO CLOUDS BELOW 12,000 FEET WITH NO
SIGNIFICANT WEATHER AND/OR OBSTRUCTIONS TO VISIBILITY.

...SOUTH CENTRAL NEBRASKA...

CITY           SKY/WX    TMP DP  RH WIND       PRES   REMARKS
GRAND ISLAND   PTSUNNY   79  66  64 NE12      29.91R
HASTINGS       SUNNY     82  69  64 NE10      29.89S
KEARNEY        SUNNY     81  66  61 NE13G20   29.92R
ORD            SUNNY     79  66  64 CALM      29.91S
YORK           PTSUNNY   81  68  65 E7        29.88S
AURORA         PTSUNNY   81  69  67 NE7       29.89S
LEXINGTON      SUNNY     87  67  51 NE12      29.92S HX  90
HOLDREGE       SUNNY     82  66  56 NE9G16    29.91R
HEBRON         SUNNY     85  66  52 NE8       29.83F

...NEBRASKA PANHANDLE...

CITY           SKY/WX    TMP DP  RH WIND       PRES   REMARKS
CHADRON        SUNNY     87  59  38 VRB7      29.99F
ALLIANCE       SUNNY     89  53  29 NE12      30.03S
SCOTTSBLUFF    SUNNY     93  49  22 VRB3      30.04S HX  90
SIDNEY         SUNNY     90  59  35 N7        30.07S

...WESTERN AND NORTH CENTRAL NEBRASKA...

CITY           SKY/WX    TMP DP  RH WIND       PRES   REMARKS
VALENTINE      MOSUNNY   85  68  56 N8        29.93S
AINSWORTH      MOSUNNY   84  67  57 NE3       29.94S
ONEILL         CLOUDY    76  67  73 E6        29.93R
BROKEN BOW     SUNNY     85  69  58 E8        29.93S
IMPERIAL       SUNNY     95  59  30 N9        29.98S HX  94
NORTH PLATTE   SUNNY     93  61  34 N13G22    29.93S HX  93
MCCOOK         SUNNY     95  57  27 NE14      29.92R HX  94

...EASTERN NEBRASKA...

CITY           SKY/WX    TMP DP  RH WIND       PRES   REMARKS
NORFOLK        PTSUNNY   79  68  69 E10       29.89F
SO SIOUX CITY  PTSUNNY   77  66  68 E9        29.90S
TEKAMAH        SUNNY     82  69  64 NE10      29.88S
COLUMBUS       PTSUNNY  N/A N/A N/A MISG        N/A
ALBION         PTSUNNY   79  65  63 E6        29.91S
OMAHA EPPLEY   MOSUNNY   83  69  62 E10       29.87S
OFFUTT AFB     MOSUNNY   83  71  68 E8        29.85F
MILLARD        MOSUNNY   82  69  66 E7        29.86S
LINCOLN        MOSUNNY   84  70  62 S3        29.86R
NEBRASKA CITY  SUNNY     84  64  51 SE7       29.86R
BEATRICE       PTSUNNY   82  72  71 E10       29.84S
FALLS CITY     CLOUDY    81  72  74 E10       29.83F

...NORTHERN KANSAS...

CITY           SKY/WX    TMP DP  RH WIND       PRES   REMARKS
GOODLAND       SUNNY     94  53  25 NE16      30.00S HX  91
HILL CITY      SUNNY     96  64  34 N16G22    29.89S HX  98
NORTON         CLEAR     88  59  37 NE12      29.90S
PHILLIPSBURG   SUNNY     93  64  38 N13       29.87S HX  95
SMITH CENTER   SUNNY     90  64  43 NE9G16    29.86R HX  91
HAYS           MOSUNNY   95  61  31 NE17G26   29.84R HX  95
RUSSELL        MOSUNNY   96  59  29 N14       29.81R HX  95
CONCORDIA      MOSUNNY   89  67  47 NE12      29.81R HX  92
SALINA         PTSUNNY   92  60  34 SW6       29.79S HX  91
TOPEKA         MOSUNNY   85  71  63 S12G21    29.80F HX  90



USA.gov is the U.S. government's official web portal to all federal, state and local government web resources and services.